TimeMDT,TemperatureF,Dew PointF,Humidity,Sea Level PressureIn,VisibilityMPH,Wind Direction,Wind SpeedMPH,Gust SpeedMPH,PrecipitationIn,Events,Conditions,WindDirDegrees,DateUTC
12:53 AM,34.0,33.1,96,29.72,3.0,NNE,9.2,-,0.03,Snow,Light Snow,30,2013-09-26 06:53:00
1:36 AM,35.6,33.8,93,29.73,10.0,NNE,12.7,-,0.00,,Overcast,20,2013-09-26 07:36:00
1:53 AM,35.1,34.0,96,29.72,10.0,NE,10.4,-,0.00,,Overcast,40,2013-09-26 07:53:00
2:53 AM,35.1,34.0,96,29.74,10.0,NNE,11.5,-,N/A,,Overcast,30,2013-09-26 08:53:00
3:53 AM,35.1,34.0,96,29.77,10.0,NNE,16.1,-,N/A,,Overcast,30,2013-09-26 09:53:00
4:44 AM,35.6,33.8,93,29.77,10.0,NNE,13.8,-,N/A,,Overcast,30,2013-09-26 10:44:00
4:53 AM,35.1,34.0,96,29.78,10.0,NNE,12.7,-,N/A,,Overcast,30,2013-09-26 10:53:00
5:41 AM,35.6,33.8,93,29.79,10.0,NNE,12.7,-,N/A,,Overcast,30,2013-09-26 11:41:00
5:53 AM,35.1,34.0,96,29.80,10.0,NNE,10.4,-,N/A,,Overcast,30,2013-09-26 11:53:00
6:21 AM,35.6,33.8,93,29.80,10.0,NNE,13.8,-,N/A,,Overcast,30,2013-09-26 12:21:00
6:53 AM,35.1,34.0,96,29.82,10.0,NNE,15.0,-,N/A,,Overcast,30,2013-09-26 12:53:00
7:53 AM,35.1,33.1,92,29.84,10.0,NE,19.6,25.3,0.01,,Overcast,40,2013-09-26 13:53:00
8:37 AM,35.6,33.8,93,29.84,10.0,NNE,17.3,-,N/A,,Overcast,20,2013-09-26 14:37:00
8:51 AM,35.6,33.8,93,29.85,10.0,NNE,19.6,25.3,N/A,,Overcast,20,2013-09-26 14:51:00
8:53 AM,35.1,33.1,92,29.87,10.0,NNE,16.1,25.3,N/A,,Overcast,30,2013-09-26 14:53:00
9:36 AM,35.6,33.8,93,29.86,10.0,NNE,13.8,-,0.00,,Overcast,30,2013-09-26 15:36:00
9:53 AM,35.1,33.1,92,29.89,10.0,NNE,16.1,-,0.00,,Overcast,30,2013-09-26 15:53:00
10:53 AM,36.0,34.0,93,29.91,9.0,NNE,16.1,21.9,0.00,Snow,Light Snow,30,2013-09-26 16:53:00
11:06 AM,35.6,33.8,93,29.89,6.0,NNE,13.8,-,0.01,Snow,Light Snow,20,2013-09-26 17:06:00
11:16 AM,35.6,33.8,93,29.89,9.0,NNE,15.0,-,0.01,Snow,Light Snow,20,2013-09-26 17:16:00
11:53 AM,37.0,33.1,86,29.92,10.0,NNE,11.5,-,0.01,,Overcast,20,2013-09-26 17:53:00
12:53 PM,39.9,32.0,73,29.92,10.0,North,18.4,-,0.00,,Overcast,10,2013-09-26 18:53:00
1:53 PM,41.0,30.9,67,29.91,10.0,NNE,23.0,28.8,N/A,,Overcast,20,2013-09-26 19:53:00
2:53 PM,41.0,32.0,70,29.91,10.0,North,18.4,25.3,N/A,,Overcast,10,2013-09-26 20:53:00
3:53 PM,42.1,33.1,70,29.92,10.0,NNE,18.4,-,N/A,,Overcast,20,2013-09-26 21:53:00
4:53 PM,43.0,30.9,62,29.93,10.0,NNE,18.4,-,N/A,,Overcast,20,2013-09-26 22:53:00
5:53 PM,41.0,30.0,65,29.95,10.0,NNE,19.6,27.6,N/A,,Scattered Clouds,20,2013-09-26 23:53:00
6:53 PM,39.9,30.9,70,29.96,10.0,North,11.5,20.7,N/A,,Overcast,10,2013-09-27 00:53:00
7:53 PM,37.9,30.9,76,29.98,10.0,North,9.2,-,N/A,,Overcast,350,2013-09-27 01:53:00
8:53 PM,37.0,30.9,79,30.00,10.0,North,6.9,-,N/A,,Overcast,350,2013-09-27 02:53:00
9:53 PM,36.0,32.0,86,30.01,10.0,ENE,5.8,-,N/A,,Overcast,60,2013-09-27 03:53:00
10:53 PM,36.0,30.9,82,30.01,10.0,ENE,4.6,-,N/A,,Overcast,60,2013-09-27 04:53:00
11:53 PM,36.0,30.9,82,30.01,10.0,East,3.5,-,N/A,,Overcast,90,2013-09-27 05:53:00